Wind_Speed
12 12 11 11 10 9 8 9 10 11 12 13 14 16 18 20 21 22 23 24 24 25 25 26 27 28 28 28 28 28 29 28 28 28 28 29 29 27 27 27 27 26 26
13 13 12 11 10 10 10 10 10 11 12 14 15 17 19 20 21 22 23 24 26 26 27 27 28 29 29 28 29 30 30 30 30 30 30 30 30 29 28 28 28 28 27
12 13 13 12 12 12 12 11 11 12 13 15 15 17 18 19 21 23 24 25 25 26 27 28 29 29 29 29 29 30 30 30 30 30 30 30 30 30 28 29 29 29 29
13 14 13 13 13 13 13 13 13 13 14 15 15 17 18 20 21 23 23 24 25 25 27 28 30 30 30 30 31 31 31 31 31 31 31 31 31 31 29 28 29 28 28
15 15 14 14 14 14 14 14 14 14 14 15 16 17 18 20 21 23 24 24 25 26 27 29 30 30 30 30 31 31 31 31 31 31 31 31 30 30 29 29 29 29 29
15 15 15 15 15 15 16 16 16 16 16 16 17 18 18 19 20 22 23 24 25 26 27 29 29 29 29 30 30 31 31 31 31 31 31 31 31 31 31 30 29 29 28
14 15 16 16 17 17 17 17 17 17 18 18 19 19 20 21 21 22 23 23 24 26 26 27 28 29 29 29 30 30 31 31 31 31 31 31 31 31 31 31 30 30 29
14 16 17 17 18 18 18 18 18 19 19 20 20 20 21 22 22 22 23 24 24 25 25 26 27 28 28 28 29 30 30 30 31 31 30 30 31 31 31 31 31 31 30
17 18 18 19 19 19 20 20 21 21 21 21 22 22 22 22 23 23 24 24 24 24 25 26 26 27 27 27 28 28 29 29 29 29 29 29 30 31 32 31 31 31 31
19 20 19 19 19 20 21 22 22 23 23 23 23 23 23 24 24 24 24 24 24 24 25 25 25 26 26 27 27 27 28 28 29 29 28 28 29 30 30 30 30 30 31
20 21 20 20 20 21 23 24 24 24 25 25 25 25 25 25 25 25 25 25 25 25 25 26 26 26 27 27 27 27 27 27 27 27 27 27 28 28 28 29 30 30 30
20 21 21 21 22 22 24 25 25 26 26 26 26 26 26 26 26 26 26 25 25 25 25 26 26 26 26 26 26 26 26 26 26 25 26 26 27 27 28 29 29 30 30
18 20 21 22 23 23 25 26 26 26 27 27 27 26 26 26 26 26 26 25 25 24 24 25 25 26 26 27 27 26 26 25 25 25 26 26 26 26 27 27 27 28 28
20 21 21 22 23 25 26 27 26 27 27 26 26 26 27 27 26 26 25 25 25 25 25 25 25 26 26 26 26 26 25 25 25 25 25 25 25 25 26 27 27 27 27
22 23 23 23 24 25 26 26 26 26 26 26 25 25 25 25 25 25 25 25 25 25 25 25 26 26 26 26 26 25 24 24 24 24 24 24 24 25 25 25 25 26 26
23 24 23 23 24 24 25 26 26 26 25 24 25 25 25 25 24 24 25 25 24 25 24 25 25 25 25 25 25 24 24 23 23 23 22 22 21 22 22 22 22 23 23
24 23 23 23 23 24 24 24 24 24 23 23 23 23 24 24 23 23 23 23 23 23 23 23 22 22 22 22 23 23 22 22 21 20 19 18 18 18 18 19 19 19 20
22 21 23 23 22 23 23 22 22 22 21 22 22 22 22 22 22 22 22 21 21 20 20 20 21 21 20 20 21 21 20 20 20 19 18 17 17 17 16 17 17 18 18
20 21 21 21 21 21 21 21 21 22 22 21 22 22 22 21 21 20 19 19 18 18 18 18 18 18 18 19 19 19 19 19 18 17 17 17 16 16 15 15 15 15 15
19 19 20 19 19 20 20 20 20 20 19 19 19 19 19 19 18 18 17 17 17 16 15 15 15 15 15 16 16 16 16 16 15 15 14 14 13 13 13 13 12 12 12
18 18 18 18 18 18 18 18 18 17 17 17 17 16 16 15 15 15 15 14 13 13 12 11 11 11 11 12 12 12 12 12 12 12 12 11 11 10 10 10 9 9 9
18 17 16 16 16 15 15 15 15 14 14 14 13 13 13 12 12 11 10 10 9 9 8 8 8 7 7 7 8 8 9 9 9 9 9 9 9 8 7 7 7 7 7
16 15 15 14 13 13 13 13 12 11 11 10 9 10 9 9 8 7 7 7 6 6 5 4 4 5 5 5 5 5 6 6 6 6 6 6 7 7 7 7 6 5 4
14 13 12 11 11 11 10 10 9 9 8 8 7 7 6 6 5 4 4 4 3 3 2 2 2 3 5 4 4 4 4 4 4 5 6 6 5 6 6 6 6 5 5
12 11 10 9 9 8 8 7 7 7 6 5 5 4 4 3 3 2 1 1 0 1 1 2 2 3 3 4 4 4 5 5 5 6 6 7 7 7 8 8 7 7 6
11 10 9 8 7 6 6 5 5 4 3 3 2 3 2 3 3 3 3 3 3 3 4 4 5 5 4 5 5 5 6 7 7 8 8 9 9 9 9 9 8 8 8
Wind_Direction
282 283 277 275 279 278 276 272 265 263 263 257 252 250 249 251 253 256 256 256 256 256 256 255 256 258 260 261 262 263 264 264 265 267 265 264 265 266 266 262 260 261 262
283 283 277 275 274 275 277 276 271 269 268 263 259 253 251 253 256 258 258 260 259 259 259 258 257 258 260 261 261 262 263 264 265 266 265 263 263 263 264 261 259 259 261
280 277 273 275 274 275 276 275 272 269 268 266 263 260 259 259 260 260 261 262 262 262 261 260 260 261 261 261 261 262 263 263 265 266 265 263 261 262 263 260 258 259 260
276 275 271 272 276 276 274 275 273 271 270 270 267 265 263 263 262 263 263 263 265 265 265 263 263 261 261 261 261 262 263 263 265 265 266 264 261 261 261 260 259 258 259
277 273 266 269 274 275 274 275 275 276 277 277 274 270 268 267 265 264 264 266 267 267 266 265 265 263 263 262 262 262 263 265 265 265 265 263 261 259 259 259 259 259 258
275 271 264 268 272 274 275 274 275 278 280 280 277 275 274 272 270 268 267 268 269 268 266 265 264 263 264 263 263 263 264 265 265 265 264 263 261 259 258 258 258 258 258
274 269 264 266 268 270 273 275 277 278 279 280 280 277 276 275 274 272 271 271 271 271 269 266 263 262 264 264 264 264 264 265 265 264 263 263 261 259 258 258 257 257 257
279 278 271 268 269 271 274 277 279 279 279 280 281 280 279 277 277 276 274 273 273 272 270 267 266 264 264 265 266 266 265 266 266 265 265 262 259 259 258 257 256 256 256
285 282 276 274 273 274 276 279 281 280 279 281 282 282 280 278 278 276 275 274 273 271 271 269 267 264 263 265 266 266 266 266 266 266 265 262 259 258 258 258 257 255 255
283 281 276 276 274 276 279 281 282 281 281 281 281 281 280 279 278 277 276 276 275 272 271 269 266 264 263 264 264 266 266 267 266 266 263 260 259 259 258 257 256 255 256
280 278 274 274 277 278 280 282 282 281 281 281 281 280 280 279 278 278 277 278 277 273 270 270 268 266 265 264 265 267 267 267 266 264 262 260 260 258 258 256 255 255 256
282 276 275 276 279 280 280 282 282 281 281 282 281 280 279 279 279 279 278 278 277 275 272 270 269 267 264 264 265 268 267 266 263 262 262 261 261 258 256 256 254 255 255
290 285 281 279 279 280 281 283 282 281 281 281 281 279 278 278 278 278 278 277 276 275 274 273 270 268 267 266 266 267 267 266 264 262 262 263 263 259 256 255 255 254 253
291 288 286 283 282 282 283 283 283 280 279 280 280 280 278 277 277 278 278 277 275 275 274 273 272 271 269 268 267 267 267 266 264 263 263 263 261 259 257 256 256 255 254
292 290 288 286 284 282 283 284 285 283 281 280 280 281 280 279 278 277 277 276 276 275 275 273 272 270 269 268 267 267 266 265 264 264 263 262 261 260 258 256 256 255 254
292 290 289 286 285 285 286 286 286 284 282 282 281 282 280 280 280 278 278 277 276 275 274 274 272 270 269 268 267 266 264 264 265 264 262 261 260 260 258 257 256 255 254
294 292 290 290 288 287 287 286 284 282 282 283 283 283 283 282 281 280 279 279 277 277 275 275 274 272 270 269 267 266 264 262 261 258 256 256 258 259 257 257 256 255 253
295 294 292 289 288 287 286 284 283 282 282 283 284 284 283 282 282 281 281 280 279 277 275 275 275 272 270 269 268 267 265 261 259 257 256 255 256 256 256 255 253 252 253
296 294 291 290 291 291 290 286 285 282 282 283 285 285 283 280 280 281 281 281 281 280 279 277 276 272 269 267 265 263 261 257 254 254 253 252 252 251 251 251 250 249 248
299 297 296 293 292 292 292 290 288 285 284 285 285 285 285 282 280 280 280 281 281 282 280 278 275 271 267 264 261 258 253 250 248 249 247 248 250 249 246 245 247 248 243
302 299 297 296 294 292 293 292 290 287 287 287 287 287 287 286 285 284 281 281 280 279 276 274 273 270 266 259 254 251 244 241 243 244 243 245 244 242 239 241 245 248 249
306 305 302 300 297 294 294 296 294 292 291 291 290 292 292 291 289 286 281 280 278 274 272 270 266 264 259 250 243 239 235 230 235 236 235 231 225 220 223 233 241 242 239
312 310 309 308 306 304 302 300 299 298 298 298 298 299 298 297 293 288 280 272 272 269 263 254 241 242 231 221 220 217 212 209 211 213 214 217 216 211 210 210 213 217 214
324 323 319 316 313 310 307 306 307 308 305 303 303 304 305 303 301 298 288 279 274 265 246 236 219 195 188 192 188 180 172 172 179 189 193 191 188 185 180 183 184 183 177
340 339 337 333 328 324 322 315 311 311 309 308 313 315 322 332 338 338 322 293 187 139 120 150 156 152 162 175 174 165 160 158 155 155 158 158 157 154 154 153 154 154 152
351 351 348 345 342 341 345 346 341 338 341 346 354 3 21 42 48 65 85 96 101 97 96 111 128 128 127 134 145 151 152 148 143 143 142 141 141 140 140 139 137 133 130
Height
5834 5834 5834 5834 5834 5834 5833 5833 5832 5833 5833 5834 5834 5835 5836 5837 5837 5838 5838 5839 5839 5840 5841 5842 5842 5843 5844 5845 5845 5846 5847 5848 5848 5848 5849 5850 5850 5851 5852 5852 5853 5853 5854
5831 5831 5831 5831 5831 5831 5830 5829 5829 5829 5829 5829 5830 5830 5831 5832 5832 5832 5832 5833 5834 5834 5834 5835 5836 5836 5836 5837 5838 5839 5840 5840 5841 5842 5842 5843 5844 5845 5845 5846 5846 5847 5848
5828 5828 5828 5828 5828 5827 5827 5826 5826 5825 5825 5825 5825 5825 5826 5826 5826 5826 5826 5827 5827 5828 5828 5828 5829 5829 5830 5830 5831 5832 5833 5833 5834 5834 5835 5836 5837 5838 5838 5839 5840 5841 5841
5825 5825 5824 5824 5824 5824 5824 5823 5822 5822 5821 5821 5821 5820 5820 5820 5820 5820 5820 5820 5821 5821 5821 5821 5821 5822 5823 5823 5824 5824 5825 5825 5826 5826 5827 5828 5829 5830 5831 5832 5833 5834 5835
5821 5821 5821 5821 5821 5820 5820 5820 5819 5818 5817 5816 5816 5815 5815 5815 5815 5815 5815 5814 5814 5814 5813 5814 5814 5815 5815 5816 5816 5817 5817 5818 5818 5819 5819 5820 5821 5822 5824 5825 5826 5827 5827
5817 5817 5817 5817 5817 5816 5816 5815 5815 5814 5813 5812 5811 5811 5810 5809 5809 5809 5808 5808 5807 5807 5806 5806 5806 5807 5807 5808 5809 5809 5810 5810 5811 5811 5812 5812 5814 5815 5816 5817 5818 5819 5820
5813 5813 5813 5813 5813 5812 5812 5811 5810 5809 5808 5807 5806 5805 5804 5803 5803 5802 5801 5801 5800 5799 5799 5798 5798 5799 5800 5800 5801 5801 5802 5802 5803 5803 5804 5805 5806 5807 5808 5809 5811 5812 5813
5809 5809 5808 5808 5808 5808 5807 5806 5805 5804 5803 5802 5801 5799 5798 5797 5796 5795 5794 5793 5793 5792 5791 5791 5791 5791 5792 5793 5793 5794 5794 5795 5795 5795 5796 5796 5798 5799 5800 5802 5803 5804 5806
5805 5804 5804 5803 5803 5802 5801 5801 5800 5798 5797 5796 5794 5793 5791 5790 5789 5788 5788 5787 5786 5785 5784 5783 5784 5784 5784 5785 5786 5786 5786 5787 5787 5787 5788 5788 5790 5791 5792 5793 5795 5797 5798
5801 5799 5799 5798 5797 5796 5795 5794 5793 5792 5790 5789 5787 5786 5785 5784 5783 5782 5781 5780 5778 5778 5777 5777 5777 5777 5777 5778 5778 5779 5779 5779 5779 5779 5780 5781 5782 5783 5784 5786 5787 5789 5791
5796 5794 5793 5792 5791 5790 5789 5788 5786 5785 5783 5782 5781 5779 5778 5777 5776 5775 5773 5772 5771 5770 5770 5770 5770 5770 5770 5771 5771 5771 5771 5772 5771 5772 5772 5773 5774 5775 5776 5778 5780 5781 5783
5790 5788 5787 5786 5785 5784 5782 5781 5779 5778 5776 5775 5773 5772 5771 5770 5768 5767 5766 5765 5764 5763 5762 5762 5762 5762 5762 5763 5763 5764 5764 5764 5764 5764 5765 5766 5767 5768 5769 5771 5772 5774 5775
5784 5783 5781 5779 5778 5777 5775 5773 5772 5770 5769 5767 5766 5764 5763 5762 5761 5759 5758 5757 5757 5756 5755 5755 5755 5754 5755 5755 5756 5756 5756 5757 5757 5757 5758 5759 5760 5761 5762 5763 5765 5766 5768
5778 5776 5774 5773 5771 5769 5767 5766 5764 5762 5761 5759 5758 5757 5755 5754 5753 5752 5751 5750 5749 5749 5748 5748 5747 5747 5747 5747 5748 5748 5749 5749 5750 5750 5751 5752 5753 5754 5755 5756 5757 5759 5760
5772 5770 5768 5766 5764 5762 5759 5758 5756 5755 5753 5752 5751 5749 5748 5746 5745 5744 5743 5742 5742 5741 5741 5740 5740 5740 5740 5740 5740 5741 5741 5742 5743 5743 5744 5745 5746 5747 5748 5749 5751 5752 5753
5766 5764 5761 5759 5757 5754 5752 5750 5749 5747 5745 5744 5743 5742 5740 5739 5738 5737 5736 5735 5735 5734 5733 5733 5733 5733 5733 5733 5733 5734 5734 5735 5736 5737 5737 5738 5739 5740 5742 5743 5744 5745 5747
5760 5757 5755 5752 5750 5748 5745 5743 5742 5740 5739 5737 5736 5735 5733 5732 5731 5730 5729 5728 5727 5727 5726 5726 5726 5726 5726 5726 5727 5727 5728 5729 5730 5731 5732 5733 5734 5735 5736 5737 5738 5740 5741
5753 5751 5748 5746 5743 5741 5739 5737 5735 5734 5732 5731 5730 5728 5727 5726 5725 5723 5722 5722 5721 5720 5720 5719 5719 5719 5720 5720 5720 5721 5722 5723 5724 5725 5726 5728 5729 5730 5731 5733 5734 5735 5736
5747 5745 5742 5740 5738 5735 5732 5731 5729 5728 5726 5725 5723 5722 5720 5719 5718 5717 5716 5716 5715 5714 5714 5714 5713 5713 5714 5714 5715 5716 5717 5718 5719 5720 5722 5723 5725 5726 5727 5729 5730 5731 5732
5741 5739 5736 5734 5732 5729 5727 5725 5723 5722 5720 5719 5717 5716 5715 5713 5713 5712 5711 5710 5710 5709 5709 5708 5708 5708 5709 5709 5710 5711 5712 5714 5715 5717 5718 5720 5721 5722 5724 5725 5727 5728 5729
5736 5733 5731 5729 5726 5724 5721 5720 5718 5716 5715 5713 5712 5711 5710 5709 5708 5707 5706 5706 5705 5705 5705 5704 5704 5704 5705 5705 5706 5707 5709 5711 5712 5714 5715 5717 5718 5720 5721 5723 5724 5726 5727
5731 5728 5726 5723 5721 5718 5717 5715 5714 5712 5711 5709 5708 5707 5706 5704 5703 5703 5702 5702 5702 5702 5701 5701 5701 5702 5702 5703 5704 5705 5707 5708 5710 5712 5713 5715 5716 5718 5720 5721 5723 5724 5726
5726 5724 5721 5719 5717 5715 5713 5712 5710 5709 5707 5706 5705 5704 5703 5702 5701 5700 5700 5700 5699 5699 5699 5699 5700 5700 5701 5702 5703 5704 5705 5707 5709 5711 5712 5714 5716 5717 5719 5721 5722 5723 5725
5723 5720 5718 5716 5714 5712 5710 5709 5708 5707 5705 5704 5703 5702 5701 5700 5699 5699 5698 5698 5698 5698 5698 5699 5699 5700 5701 5701 5703 5704 5705 5707 5708 5710 5712 5714 5715 5717 5719 5721 5722 5724 5725
5721 5718 5715 5713 5712 5710 5709 5707 5706 5705 5704 5703 5702 5701 5700 5699 5698 5698 5698 5698 5698 5698 5699 5699 5699 5700 5701 5702 5703 5704 5706 5707 5709 5711 5712 5714 5716 5718 5719 5721 5723 5724 5726
5720 5717 5715 5712 5711 5709 5708 5706 5705 5704 5703 5702 5702 5701 5700 5699 5699 5699 5699 5699 5699 5699 5699 5699 5700 5701 5702 5702 5704 5705 5706 5708 5710 5712 5713 5715 5717 5719 5721 5722 5724 5725 5727